Le nostre stazioni meteo in Italia

Pubblicità
Il mio iltempo24.it
Kinbrace, Gran Bretagna (99016): Temperatura & dewpoint: 13.06.2019 00:00:00 - 19.06.2019 00:00:00 (BST)Kinbrace, Gran Bretagna (99016): velocità del vento & gusts: 13.06.2019 00:00:00 - 19.06.2019 00:00:00 (BST)Kinbrace, Gran Bretagna (99016): direzione del vento: 13.06.2019 00:00:00 - 19.06.2019 00:00:00 (BST)Kinbrace, Gran Bretagna (99016): precipitazioni: 13.06.2019 00:00:00 - 19.06.2019 00:00:00 (BST)
Data & Tempo tt [°C] td [°C] ff [km/h] ff [kn] fx [km/h] fx [kn] dd rr [mm]
19.06.2019 00:00:00 11,1 7,7 9 5 - - SSE 0,0
18.06.2019 23:00:00 11,6 7,9 11 6 - - SSE 0,0
18.06.2019 22:00:00 11,3 9,2 5 3 - - S 0,0
18.06.2019 21:00:00 12,2 8,7 5 3 - - SSO 0,0
18.06.2019 20:00:00 13,0 8,9 11 6 - - OSO 0,0
18.06.2019 19:00:00 13,8 7,7 13 7 - - SO 0,0
18.06.2019 18:00:00 13,0 9,5 13 7 - - OSO 0,0
18.06.2019 17:00:00 13,8 8,7 16 9 - - OSO 0,0
18.06.2019 16:00:00 14,8 9,6 22 12 - - O 0,0
18.06.2019 15:00:00 14,8 8,3 31 17 48 26 OSO 0,0
18.06.2019 14:00:00 15,9 9,0 29 16 48 26 O 0,0
18.06.2019 13:00:00 15,7 9,2 29 16 - - O 0,0
18.06.2019 12:00:00 15,8 9,6 26 14 - - OSO 0,2
18.06.2019 11:00:00 12,7 9,1 18 10 - - SO 0,0
18.06.2019 10:00:00 11,9 8,8 21 11 - - SSO 0,0
18.06.2019 09:00:00 11,7 8,0 18 10 - - S 0,0
18.06.2019 08:00:00 11,1 7,3 18 10 - - SSE 0,0
18.06.2019 07:00:00 10,7 6,9 24 13 - - SE 0,0
18.06.2019 06:00:00 10,5 7,4 26 14 - - SSE 0,0
18.06.2019 05:00:00 9,6 6,9 22 12 - - SSE 0,0
18.06.2019 04:00:00 9,2 6,8 21 11 - - SE 0,0
18.06.2019 03:00:00 8,9 7,2 18 10 - - E 0,0
18.06.2019 02:00:00 9,7 7,4 21 11 - - ESE 0,0
18.06.2019 01:00:00 9,4 6,9 8 4 - - S 0,0
18.06.2019 00:00:00 7,9 7,3 4 2 - - SSE 0,0
17.06.2019 23:00:00 8,9 7,3 8 4 - - O 0,0
17.06.2019 22:00:00 10,5 8,7 13 7 - - OSO 0,0
17.06.2019 21:00:00 11,0 8,7 16 9 - - OSO 0,2
17.06.2019 20:00:00 11,0 9,7 4 2 - - SSO 0,6
17.06.2019 19:00:00 11,3 10,0 8 4 - - SSE 1,8
17.06.2019 18:00:00 10,3 9,4 8 4 - - E 4,2
17.06.2019 17:00:00 11,0 9,1 8 4 - - ESE 2,6
17.06.2019 16:00:00 10,7 8,8 16 9 - - ONO 0,8
17.06.2019 15:00:00 14,5 10,5 11 6 - - SSO 0,8
17.06.2019 14:00:00 14,5 9,2 18 10 - - SSE 0,0
17.06.2019 13:00:00 14,7 9,8 15 8 - - SO 0,4
17.06.2019 12:00:00 14,8 10,1 15 8 - - SO 0,2
17.06.2019 11:00:00 13,3 8,3 13 7 - - SO 0,0
17.06.2019 10:00:00 13,2 8,2 16 9 - - O 0,0
17.06.2019 09:00:00 11,7 9,9 15 8 - - OSO 0,0
17.06.2019 08:00:00 11,6 9,5 15 8 - - SSO 0,0
17.06.2019 07:00:00 10,4 9,6 4 2 - - SE 0,0
17.06.2019 06:00:00 9,7 9,1 4 2 - - SO 0,2
17.06.2019 05:00:00 9,9 9,0 11 6 - - ESE 0,2
17.06.2019 04:00:00 9,9 8,5 13 7 - - ESE 0,6
17.06.2019 03:00:00 9,9 8,2 15 8 - - ESE 0,0
17.06.2019 02:00:00 7,1 6,0 4 2 - - ENE 0,0
17.06.2019 01:00:00 8,6 7,4 5 3 - - E 0,0
17.06.2019 00:00:00 8,7 7,7 2 1 - - E 0,0
16.06.2019 23:00:00 8,8 7,6 4 2 - - SSE 0,0
16.06.2019 22:00:00 10,2 8,2 8 4 - - ONO 0,8
16.06.2019 21:00:00 11,2 7,7 11 6 - - O 0,0
16.06.2019 20:00:00 12,1 8,0 18 10 - - ESE 0,0
16.06.2019 19:00:00 13,9 8,3 8 4 - - SSE 0,0
16.06.2019 18:00:00 11,6 8,6 9 5 - - E 1,6
16.06.2019 17:00:00 10,7 8,1 16 9 - - S 0,8
16.06.2019 16:00:00 14,4 7,7 11 6 - - SSO 0,2
16.06.2019 15:00:00 14,2 7,7 21 11 - - OSO 0,0
16.06.2019 14:00:00 15,3 6,9 15 8 - - OSO 0,0
16.06.2019 13:00:00 14,7 7,0 21 11 - - OSO 0,0
16.06.2019 12:00:00 13,7 7,5 18 10 - - OSO 0,0
16.06.2019 11:00:00 13,6 7,5 21 11 - - SO 0,0
16.06.2019 10:00:00 13,3 8,8 15 8 - - SSO 0,0
16.06.2019 09:00:00 12,3 8,5 16 9 - - SSE 0,0
16.06.2019 08:00:00 11,8 8,9 11 6 - - SSE 0,0
16.06.2019 07:00:00 11,4 10,0 11 6 - - SSE 0,0
16.06.2019 06:00:00 11,1 10,3 11 6 - - SE 0,4
16.06.2019 05:00:00 11,0 9,9 13 7 - - SE 0,0
16.06.2019 04:00:00 10,8 9,7 15 8 - - ESE 0,0
16.06.2019 03:00:00 10,6 9,5 13 7 - - ESE 0,0
16.06.2019 02:00:00 10,8 9,6 18 10 - - ESE 0,0
16.06.2019 01:00:00 9,3 7,9 4 2 - - N 0,0
16.06.2019 00:00:00 10,6 8,7 18 10 - - SE 0,0
15.06.2019 23:00:00 10,7 9,1 15 8 - - ESE 0,0
15.06.2019 22:00:00 11,3 9,1 21 11 - - ESE 0,0
15.06.2019 21:00:00 12,0 9,6 22 12 - - ESE 0,0
15.06.2019 20:00:00 12,9 10,1 22 12 - - ESE 0,0
15.06.2019 19:00:00 14,0 10,5 21 11 - - ESE 0,0
15.06.2019 18:00:00 15,2 10,7 26 14 - - ESE 0,0
15.06.2019 17:00:00 14,8 10,6 22 12 - - ESE 0,0
15.06.2019 16:00:00 15,4 11,7 22 12 - - ESE 0,0
15.06.2019 15:00:00 14,9 11,6 24 13 - - ESE 0,0
15.06.2019 14:00:00 13,7 11,1 28 15 - - ESE 0,0
15.06.2019 13:00:00 12,7 10,4 21 11 - - ESE 0,0
15.06.2019 12:00:00 13,0 10,2 28 15 - - ESE 0,0
15.06.2019 11:00:00 11,8 9,2 26 14 - - ESE 0,0
15.06.2019 10:00:00 13,6 8,3 24 13 - - ESE 0,0
15.06.2019 09:00:00 13,8 8,2 29 16 - - SE 0,0
15.06.2019 08:00:00 12,9 8,7 24 13 - - SSE 0,0
15.06.2019 07:00:00 10,5 7,6 13 7 - - SSE 0,0
15.06.2019 06:00:00 10,6 7,6 18 10 - - ESE 0,0
15.06.2019 05:00:00 10,2 6,5 21 11 - - ESE 0,0
15.06.2019 04:00:00 9,4 6,2 28 15 - - ESE 0,0
15.06.2019 03:00:00 9,6 6,5 21 11 - - ESE 0,0
15.06.2019 02:00:00 10,3 6,6 22 12 - - ESE 0,0
15.06.2019 01:00:00 9,7 6,8 18 10 - - ESE 0,0
15.06.2019 00:00:00 9,3 6,4 22 12 - - ESE 0,0
14.06.2019 23:00:00 9,9 6,7 21 11 - - ESE 0,0
14.06.2019 22:00:00 11,1 7,1 24 13 - - ESE 0,0
14.06.2019 21:00:00 11,6 6,9 24 13 - - SE 0,0
14.06.2019 20:00:00 13,6 7,5 29 16 - - SE 0,0
14.06.2019 19:00:00 13,6 7,0 35 19 50 27 SE 0,0
14.06.2019 18:00:00 14,8 7,7 34 18 46 25 SE 0,0
14.06.2019 17:00:00 14,0 4,7 29 16 48 26 SE 0,0
14.06.2019 16:00:00 14,2 6,1 26 14 48 26 SSE 0,0
14.06.2019 15:00:00 15,1 6,5 26 14 - - S 0,0
14.06.2019 14:00:00 14,1 7,0 28 15 - - SSE 0,0
14.06.2019 13:00:00 12,7 6,4 29 16 46 25 SSE 0,0
14.06.2019 12:00:00 12,2 6,9 26 14 - - SE 0,0
14.06.2019 11:00:00 10,9 6,8 31 17 46 25 SE 0,0
14.06.2019 10:00:00 11,1 7,2 29 16 - - SE 0,0
14.06.2019 09:00:00 11,0 7,3 29 16 - - SSE 0,0
14.06.2019 08:00:00 9,8 7,8 26 14 - - SSE 0,0
14.06.2019 07:00:00 8,8 7,4 16 9 - - SE 0,0
14.06.2019 06:00:00 8,1 6,5 18 10 - - SE 0,0
14.06.2019 05:00:00 8,2 7,0 21 11 - - SSE 0,0
14.06.2019 04:00:00 8,2 7,3 13 7 - - S 0,4
14.06.2019 03:00:00 8,3 7,5 11 6 - - SSO 0,8
14.06.2019 02:00:00 8,4 7,6 11 6 - - SO 1,4
14.06.2019 01:00:00 8,4 7,8 15 8 - - O 0,4
14.06.2019 00:00:00 8,5 7,9 16 9 - - ONO 0,2
13.06.2019 23:00:00 8,5 8,0 21 11 - - NO 0,4
13.06.2019 22:00:00 8,6 7,8 22 12 - - NNO 0,4
13.06.2019 21:00:00 8,8 8,1 21 11 - - NNO 0,2
13.06.2019 20:00:00 8,7 7,9 21 11 - - NNO 0,4
13.06.2019 19:00:00 8,9 8,2 24 13 - - N 0,8
13.06.2019 18:00:00 9,0 8,3 22 12 - - N 0,8
13.06.2019 17:00:00 9,0 8,2 21 11 - - N 0,4
13.06.2019 16:00:00 9,1 8,6 22 12 - - N 0,4
13.06.2019 15:00:00 7,9 7,4 22 12 - - NNO 0,2
13.06.2019 14:00:00 7,7 7,2 16 9 - - N 0,2
13.06.2019 13:00:00 7,5 6,6 24 13 - - N 0,0
13.06.2019 12:00:00 7,3 6,2 24 13 - - N 0,0
13.06.2019 11:00:00 7,7 6,0 22 12 - - N 0,0
13.06.2019 10:00:00 7,2 5,7 22 12 - - N 0,2
13.06.2019 09:00:00 7,0 4,8 21 11 - - N 0,0
13.06.2019 08:00:00 6,4 5,3 22 12 - - N 0,2
13.06.2019 07:00:00 6,2 5,5 22 12 - - N 0,0
13.06.2019 06:00:00 6,3 5,4 22 12 - - N 0,0
13.06.2019 05:00:00 6,1 4,4 16 9 - - N 0,0
13.06.2019 04:00:00 6,3 4,1 24 13 - - N 0,0
13.06.2019 03:00:00 6,2 4,7 24 13 - - N 0,0
13.06.2019 02:00:00 6,6 4,8 21 11 - - N 0,0
13.06.2019 01:00:00 6,7 5,3 21 11 - - N 0,0
13.06.2019 00:00:00 6,8 5,1 16 9 - - N 0,2

tt = Temperatura
td = dewpoint
ff = velocità del vento
fx = gusts
dd = direzione del vento
rr = precipitazioni

Stazioni seguenti

WeatherPro
AMSI
MeteoEarth